Regional Weather Roundup
Issued by NWS

Home | Current Version | Previous Version | Graphics & Text | Print | Product List | Glossary Off
Versions: 1 2 3 4 5 6 7 8 9 10 11 12 13 14 15 16 17 18 19 20 21 22 23 24 25 26 27

000
ASUS43 KDMX 241607
RWRIA

WEATHER ROUNDUP FOR IOWA
NATIONAL WEATHER SERVICE DES MOINES IA
1100 AM CDT FRI OCT 24 2014

NOTE: "FAIR" INDICATES FEW OR NO CLOUDS BELOW 12,000 FEET WITH NO
SIGNIFICANT WEATHER AND/OR OBSTRUCTIONS TO VISIBILITY.

* - THESE STATIONS ARE NOT NWS STATIONS...THUS NOT UNDER NWS
QUALITY CONTROL.  THEY ALSO DO NOT REPORT WEATHER SUCH
AS PRECIPITATION OR FOG.

IAZ001>003-012>014-020>022-031>034-043>046-241700-
   NORTHWEST IOWA

CITY           SKY/WX    TMP DP  RH WIND       PRES   REMARKS
CARROLL *      CLOUDY    63  59  88 SW10G21   29.93R FOG
CHEROKEE *     CLOUDY    61  59  94 SW7       29.90F
DENISON *      PTSUNNY   63  61  94 SW10      29.91F FOG
LE MARS *      SUNNY     61  57  88 SW6       29.91S
ORANGE CITY *  SUNNY     61  54  77 W7        29.90S
SHELDON *      SUNNY     59  54  82 W6G12     29.89S
SIOUX CITY     CLOUDY    63  55  75 VRB3      29.92R
SPENCER        CLOUDY    61  55  81 W14       29.89S
STORM LAKE *   MOSUNNY   61  57  88 SW16      29.92S
$$

IAZ055>058-069>071-079>083-090>094-241700-
   SOUTHWEST IOWA

CITY           SKY/WX    TMP DP  RH WIND       PRES   REMARKS
ATLANTIC *     CLOUDY    63  61  94 S13       29.95S FOG
AUDUBON *      MOSUNNY   63  57  82 S7        29.96R HAZE
CLARINDA *     CLOUDY    63  61  94 S8        29.99S FOG
COUNCIL BLFS * PTSUNNY   63  63 100 SW12      29.94R FOG
CRESTON *      FOG       59  59 100 S16       29.98S VSB 3/4
HARLAN  *      CLOUDY    63  63 100 SW13      29.98S FOG
LAMONI         FOG       58  58 100 S9        30.01F VSB 1
RED OAK *      MOSUNNY   64  61  88 S13       29.95S
SHENANDOAH *   SUNNY     66  61  82 S12       29.97S
$$

IAZ047>049-059>061-072>074-084-241700-
   CENTRAL IOWA

CITY           SKY/WX    TMP DP  RH WIND       PRES   REMARKS
AMES           CLOUDY    59  58  96 S14       29.95S FOG
ANKENY *       CLOUDY    61  61 100 S9G15     29.96S FOG
CHARITON *     CLOUDY    59  59 100 S12G18    30.00S FOG
DES MOINES     CLOUDY    62  60  93 S14       29.97S FOG
GRINNELL*      FOG       57  57 100 S13       30.00S VSB 1/4
KNOXVILLE *    CLOUDY    59  59 100 S13G20    29.98F FOG
MARSHALLTOWN   FOG       58  58 100 S13       29.96F VSB 3/4
PELLA *        CLOUDY    59  59 100 S13       30.01S FOG
PERRY *        CLOUDY    63  61  94 SW7       29.95R FOG
$$

IAZ004>006-015-016-023>025-035-036-241700-
   NORTH CENTRAL IOWA

CITY           SKY/WX    TMP DP  RH WIND       PRES   REMARKS
ALGONA *       MOSUNNY   61  59  94 SW8       29.91R FOG
CLARION *      FOG       57  57 100 S10       29.92S VSB 0
ESTHERVILLE    CLOUDY    60  55  83 W12       29.89R
FORT DODGE *   CLOUDY    61  57  88 S10       29.92F
MASON CITY     FOG       54  54 100 S9        29.94S VSB 1/4
FOREST CITY *  FOG       55  55 100 S7        29.92S VSB 1/2
IOWA FALLS *   DRZL/FOG  57  57 100 S13       29.94F VSB 1/2
$$

IAZ007>011-017>019-026>030-037>042-050>054-066-241700-
   NORTHEAST IOWA

CITY           SKY/WX    TMP DP  RH WIND       PRES   REMARKS
CEDAR RAPIDS   FOG       51  51 100 S10       30.02S VSB 1/16
CHARLES CITY * FOG       52  52 100 S12G17    29.95F VSB 0
CLINTON *      CLOUDY    54  52  94 S7        30.09S
DECORAH *      PTSUNNY   57  55  94 S10       29.96F
DUBUQUE        FOG       52  52 100 S13       30.04S VSB 1/4
MONTICELLO *   FOG       52  52 100 S8        30.04S VSB 0
OELWEIN *      FOG       54  54 100 S13       30.00R VSB 0
WATERLOO       FOG       51  51 100 S12       29.97F VSB 1
$$

IAZ064-065-067-068-078-241700-
   EAST CENTRAL IOWA

CITY           SKY/WX    TMP DP  RH WIND       PRES   REMARKS
DAVENPORT      CLOUDY    54  53  97 S12       30.07R FOG
IOWA CITY      FOG       53  53 100 S7        30.06S VSB 1/4
MT. PLEASANT * FOG       55  55 100 S6        30.07R VSB 1/2
MUSCATINE *    FOG       54  54 100 S9        30.06S VSB 3/4
QUAD CITIES    CLOUDY    55  52  89 S9        30.07R FOG
$$

IAZ062-063-075>077-085>089-095>099-241700-
   SOUTHEAST IOWA

CITY           SKY/WX    TMP DP  RH WIND       PRES   REMARKS
BURLINGTON     FOG       54  54 100 S7        30.07F VSB 1/4
FAIRFIELD *    CLOUDY    57  57 100 S10       30.05R
FORT MADISON * FOG       55  55 100 S7        30.08S VSB 1/4
KEOKUK *       FOG       55  55 100 S9        30.07S VSB 0
OSKALOOSA *    CLOUDY    57  57 100 S14       30.03S FOG
CENTERVILLE *  CLOUDY    57  57 100 S7        30.04F FOG
OTTUMWA        CLOUDY    58  57  97 S10       30.02F FOG
WASHINGTON *   FOG       55  55 100 S10       30.04F VSB 0
$$

ABBREVIATIONS USED IN REMARKS
   TC - TEMPERATURES IN CELSIUS
  WCI - WIND CHILL INDEX
   HX - HEAT INDEX
  VSB - VISIBILITY
$$




USA.gov is the U.S. government's official web portal to all federal, state and local government web resources and services.